Back to catalog

STARLINK-37945

AliveCommunicationsSSO
NORAD 69669·PAYLOAD·🇺🇸 United States

Launched Jun 21, 2026 from Vandenberg Space Force Base

Loading…

Next Passes (next 24 hours)

TLE

FreshSource: CelesTrak SupGP

Epoch: Sep 14, 2026, 16:18 UTC

1 69669C 26143W   26257.67965278 -.00026546  00000+0 -82403-3 0  2575
2 69669  97.2841 300.9662 0001429  95.7386 185.3351 15.33453547    16

Track STARLINK-37945 in real time with AllMySat

Download on the App Store